Change the Weather History Date:

Thursday, April 24, 2014

  Actual Average Record
Temperature  
Mean Temperature 44 °F -  
Max Temperature 50 °F 61 °F 77 °F (2012)
Min Temperature 35 °F 39 °F 28 °F (2013)
Degree Days  
Heating Degree Days 22    
Moisture  
Dew Point 42 °F    
Average Humidity 89    
Maximum Humidity 100    
Minimum Humidity 76    
Precipitation  
Precipitation 0.62 in - - ()
Sea Level Pressure  
Sea Level Pressure 29.72 in    
Wind  
Wind Speed 13 mph (East)    
Max Wind Speed 21 mph    
Max Gust Speed 26 mph    
Visibility 9 miles    
Events Rain    
Averages and records for this station are not official NWS values.
T = Trace of Precipitation, MM = Missing Value Source: NWS Daily Summary

Daily Weather History Graph

Daily Weather History Graph

Search for Another Location

Airport or City:

Trip Planner

Search our weather history database for the weather conditions in past years. The results will help you decide how hot, cold, wet, or windy it might be!

Date:

Astronomy

Apr. 24, 2014 Rise Set
Actual Time 6:18 AM CDT 8:07 PM CDT
Civil Twilight 5:47 AM CDT 8:38 PM CDT
Nautical Twilight 5:10 AM CDT 9:15 PM CDT
Astronomical Twilight 4:30 AM CDT 9:56 PM CDT
Moon 3:38 AM CDT (4/24) 3:16 PM CDT (4/24)
Length of Visible Light 14h 50m
Length of Day
13h 49m
Waning Crescent, 24% of the Moon is Illuminated
Apr 24
Waning Crescent
Apr 29
New
May 6
First Quarter
May 14
Full
May 21
Last Quarter

Hourly Weather History & Observations

Time (CDT) Temp. Windchill Dew Point Humidity Pressure Visibility Wind Dir Wind Speed Gust Speed Precip Events Conditions
12:15 AM 42.8 °F 35.4 °F 41.0 °F 93% 29.84 in 10.0 mi ESE 15.0 mph 20.7 mph 0.01 in Rain Light Rain
12:35 AM 42.8 °F 34.8 °F 41.0 °F 93% 29.83 in 7.0 mi ESE 17.3 mph 24.2 mph 0.02 in Rain Light Rain
12:55 AM 42.8 °F 34.5 °F 41.0 °F 93% 29.82 in 7.0 mi SE 18.4 mph 23.0 mph 0.03 in Rain Light Rain
1:15 AM 42.8 °F 34.3 °F 41.0 °F 93% 29.82 in 10.0 mi SE 19.6 mph 26.5 mph N/A Rain Rain
1:35 AM 42.8 °F 34.3 °F 41.0 °F 93% 29.81 in 10.0 mi SE 19.6 mph 26.5 mph N/A   Overcast
1:55 AM 44.6 °F 37.2 °F 41.0 °F 87% 29.80 in 10.0 mi ESE 17.3 mph 26.5 mph N/A   Overcast
2:15 AM 44.6 °F 37.8 °F 41.0 °F 87% 29.79 in 10.0 mi ESE 15.0 mph 20.7 mph N/A Rain Light Rain
2:35 AM 42.8 °F 34.3 °F 41.0 °F 93% 29.77 in 7.0 mi ESE 19.6 mph 26.5 mph 0.03 in Rain Rain
2:55 AM 42.8 °F 35.4 °F 41.0 °F 93% 29.77 in 5.0 mi ESE 15.0 mph 26.5 mph 0.05 in Rain Heavy Rain
3:15 AM 42.8 °F 37.0 °F 42.8 °F 100% 29.78 in 7.0 mi ESE 10.4 mph 23.0 mph 0.02 in Rain Rain
3:35 AM 42.8 °F 35.8 °F 42.8 °F 100% 29.80 in 1.2 mi SE 13.8 mph 23.0 mph 0.21 in Rain Light Rain
3:55 AM 42.8 °F 37.5 °F 42.8 °F 100% 29.80 in 5.0 mi ESE 9.2 mph - 0.51 in   Unknown
4:15 AM 44.6 °F 37.8 °F 41.0 °F 87% 29.79 in 10.0 mi East 15.0 mph 18.4 mph 0.02 in Rain Light Rain
4:35 AM 42.8 °F 36.6 °F 41.0 °F 93% 29.77 in 10.0 mi East 11.5 mph 19.6 mph 0.03 in Rain Light Rain
4:55 AM 42.8 °F 36.2 °F 41.0 °F 93% 29.75 in 7.0 mi East 12.7 mph 16.1 mph 0.03 in Rain Light Rain
5:15 AM 42.8 °F 35.4 °F 41.0 °F 93% 29.74 in 7.0 mi East 15.0 mph 20.7 mph N/A   Overcast
5:35 AM 42.8 °F 36.6 °F 41.0 °F 93% 29.74 in 10.0 mi East 11.5 mph - N/A   Overcast
5:55 AM 42.8 °F 35.1 °F 41.0 °F 93% 29.72 in 7.0 mi East 16.1 mph 23.0 mph N/A   Drizzle
6:15 AM 42.8 °F 37.5 °F 41.0 °F 93% 29.74 in 10.0 mi East 9.2 mph - N/A   Overcast
6:35 AM 42.8 °F 34.5 °F 41.0 °F 93% 29.71 in 7.0 mi East 18.4 mph 24.2 mph N/A   Overcast
6:55 AM 41.0 °F 32.8 °F 41.0 °F 100% 29.70 in 10.0 mi East 16.1 mph 24.2 mph N/A   Overcast
7:15 AM 42.8 °F 35.1 °F 39.2 °F 87% 29.71 in 10.0 mi East 16.1 mph 23.0 mph N/A   Overcast
7:35 AM 42.8 °F 34.3 °F 39.2 °F 87% 29.70 in 10.0 mi East 19.6 mph 25.3 mph N/A   Overcast
7:55 AM 42.8 °F 34.5 °F 39.2 °F 87% 29.69 in 10.0 mi East 18.4 mph 25.3 mph N/A   Overcast
8:15 AM 42.8 °F 34.0 °F 39.2 °F 87% 29.69 in 10.0 mi ESE 20.7 mph 25.3 mph N/A   Overcast
8:35 AM 42.8 °F 35.4 °F 39.2 °F 87% 29.68 in 10.0 mi ESE 15.0 mph 26.5 mph N/A   Overcast
8:55 AM 42.8 °F 35.1 °F 39.2 °F 87% 29.68 in 10.0 mi ESE 16.1 mph 20.7 mph N/A   Overcast
9:15 AM 42.8 °F 36.2 °F 41.0 °F 93% 29.68 in 10.0 mi ESE 12.7 mph 21.9 mph N/A   Overcast
9:55 AM 42.8 °F 36.2 °F 41.0 °F 93% 29.64 in 7.0 mi ESE 12.7 mph 18.4 mph N/A Rain Light Rain
10:15 AM 42.8 °F 35.8 °F 41.0 °F 93% 29.64 in 7.0 mi ESE 13.8 mph 18.4 mph N/A Rain Rain
10:35 AM 44.6 °F 38.1 °F 41.0 °F 87% 29.66 in 10.0 mi ESE 13.8 mph - N/A   Overcast
10:55 AM 44.6 °F 38.8 °F 41.0 °F 87% 29.67 in 10.0 mi SE 11.5 mph 16.1 mph N/A Rain Light Rain
11:15 AM 44.6 °F 39.7 °F 42.8 °F 93% 29.66 in 7.0 mi SE 9.2 mph - N/A   Drizzle
11:35 AM 44.6 °F 40.7 °F 42.8 °F 93% 29.67 in 10.0 mi SE 6.9 mph - N/A   Overcast
11:55 AM 44.6 °F 40.7 °F 44.6 °F 100% 29.65 in 10.0 mi SE 6.9 mph - N/A   Overcast
12:15 PM 46.4 °F 42.9 °F 44.6 °F 93% 29.65 in 10.0 mi SSE 6.9 mph - N/A   Overcast
12:35 PM 46.4 °F 43.5 °F 44.6 °F 93% 29.66 in 10.0 mi SSE 5.8 mph - N/A   Overcast
12:55 PM 46.4 °F 44.3 °F 44.6 °F 93% 29.66 in 10.0 mi SSW 4.6 mph - N/A   Overcast
1:15 PM 48.2 °F - 44.6 °F 87% 29.65 in 10.0 mi WSW 3.5 mph - N/A   Overcast
1:35 PM 50.0 °F - 44.6 °F 82% 29.65 in 10.0 mi WNW 9.2 mph - N/A   Overcast
1:55 PM 50.0 °F - 44.6 °F 82% 29.65 in 10.0 mi WNW 11.5 mph - N/A   Overcast
2:15 PM 50.0 °F - 44.6 °F 82% 29.66 in 10.0 mi WNW 13.8 mph - N/A   Overcast
2:35 PM 50.0 °F - 44.6 °F 82% 29.65 in 10.0 mi NNW 11.5 mph 17.3 mph N/A   Overcast
2:55 PM 50.0 °F - 42.8 °F 76% 29.65 in 10.0 mi North 10.4 mph 17.3 mph N/A   Overcast
3:15 PM 50.0 °F - 42.8 °F 76% 29.67 in 10.0 mi NW 10.4 mph - N/A   Overcast
3:35 PM 50.0 °F - 44.6 °F 82% 29.68 in 10.0 mi WNW 15.0 mph - N/A   Overcast
3:55 PM 50.0 °F - 42.8 °F 76% 29.68 in 10.0 mi NW 12.7 mph 19.6 mph N/A   Overcast
4:15 PM 50.0 °F - 42.8 °F 76% 29.68 in 10.0 mi NW 13.8 mph 19.6 mph N/A   Overcast
4:35 PM 50.0 °F - 42.8 °F 76% 29.68 in 10.0 mi NW 10.4 mph - N/A   Overcast
4:55 PM 50.0 °F - 42.8 °F 76% 29.69 in 10.0 mi NW 13.8 mph 17.3 mph N/A   Overcast
5:15 PM 50.0 °F - 42.8 °F 76% 29.69 in 10.0 mi NW 9.2 mph - N/A   Overcast
5:35 PM 50.0 °F - 42.8 °F 76% 29.70 in 10.0 mi NW 10.4 mph - N/A   Overcast
5:55 PM 50.0 °F - 42.8 °F 76% 29.70 in 10.0 mi NW 12.7 mph - N/A   Overcast
6:15 PM 50.0 °F - 42.8 °F 76% 29.70 in 10.0 mi NW 11.5 mph - N/A   Mostly Cloudy
6:35 PM 50.0 °F - 42.8 °F 76% 29.69 in 10.0 mi NW 12.7 mph - N/A   Mostly Cloudy
6:55 PM 50.0 °F - 42.8 °F 76% 29.70 in 10.0 mi NW 12.7 mph - N/A   Mostly Cloudy
7:15 PM 50.0 °F - 42.8 °F 76% 29.70 in 10.0 mi NW 10.4 mph - N/A   Scattered Clouds
7:35 PM 48.2 °F - 42.8 °F 82% 29.71 in 10.0 mi NW 8.1 mph - N/A   Clear
7:55 PM 48.2 °F - 42.8 °F 82% 29.71 in 10.0 mi NW 8.1 mph - N/A   Clear
8:15 PM 46.4 °F 44.3 °F 42.8 °F 87% 29.72 in 10.0 mi NW 4.6 mph - N/A   Clear
8:35 PM 46.4 °F 44.3 °F 42.8 °F 87% 29.72 in 10.0 mi NW 4.6 mph - N/A   Clear
8:55 PM 46.4 °F 44.3 °F 42.8 °F 87% 29.73 in 10.0 mi NNW 4.6 mph - N/A   Clear
9:15 PM 44.6 °F - 41.0 °F 87% 29.73 in 10.0 mi Calm Calm - N/A   Clear
9:35 PM 41.0 °F 39.0 °F 41.0 °F 100% 29.74 in 10.0 mi WNW 3.5 mph - N/A   Clear
9:55 PM 41.0 °F 38.0 °F 41.0 °F 100% 29.75 in 10.0 mi WNW 4.6 mph - N/A   Clear
10:15 PM 41.0 °F 37.1 °F 41.0 °F 100% 29.77 in 10.0 mi WNW 5.8 mph - N/A   Clear
10:35 PM 42.8 °F 39.3 °F 42.8 °F 100% 29.77 in 10.0 mi WNW 5.8 mph - N/A   Clear
10:55 PM 39.2 °F 37.0 °F 39.2 °F 100% 29.76 in 10.0 mi West 3.5 mph - N/A   Clear
11:15 PM 37.4 °F - 37.4 °F 100% 29.76 in 7.0 mi Calm Calm - N/A   Clear
11:35 PM 35.6 °F - 35.6 °F 100% 29.76 in 2.0 mi Calm Calm - N/A   Clear